| time (UTC) | temp C | wind direction | speed KPH | gust KPH | rain 1hr cm | rain 24hr cm | rain mn cm | humidity % | barometer mb |
| 20260903224558 | 16 | 0 | 0.0 | 0.0 | 0.00 | 0.00 | 0.00 | 71 | 1020.1 |
| 20260903223048 | 16 | 0 | 0.0 | 0.0 | 0.00 | 0.00 | 0.00 | 71 | 1020.1 |
| 20260903221551 | 16 | 0 | 0.0 | 0.0 | 0.00 | 0.00 | 0.00 | 71 | 1020.2 |
| 20260903220056 | 16 | 0 | 0.0 | 0.0 | 0.00 | 0.00 | 0.00 | 69 | 1020.3 |
| 20260903214603 | 16 | 0 | 0.0 | 0.0 | 0.00 | 0.00 | 0.00 | 69 | 1020.2 |
| 20260903213052 | 16 | 0 | 0.0 | 0.0 | 0.00 | 0.00 | 0.00 | 67 | 1020.2 |
| 20260903211553 | 16 | 0 | 0.0 | 0.0 | 0.00 | 0.00 | 0.00 | 67 | 1020.1 |
| 20260903210123 | 16 | 0 | 0.0 | 0.0 | 0.00 | 0.00 | 0.00 | 67 | 1019.8 |
| 20260903204603 | 17 | 0 | 0.0 | 0.0 | 0.00 | 0.00 | 0.00 | 66 | 1020.0 |
| 20260903203053 | 17 | 0 | 0.0 | 0.0 | 0.00 | 0.00 | 0.00 | 65 | 1020.3 |
| 20260903201550 | 17 | 0 | 0.0 | 0.0 | 0.00 | 0.00 | 0.00 | 63 | 1020.4 |
| 20260903200116 | 18 | 0 | 0.0 | 0.0 | 0.00 | 0.00 | 0.00 | 61 | 1019.9 |
| 20260903194556 | 18 | 0 | 0.0 | 4.8 | 0.00 | 0.00 | 0.00 | 61 | 1019.7 |
| 20260903193056 | 18 | 0 | 0.0 | 0.0 | 0.00 | 0.00 | 0.00 | 59 | 1019.6 |
| 20260903191600 | 19 | 0 | 0.0 | 0.0 | 0.00 | 0.00 | 0.00 | 58 | 1019.5 |
| 20260903190054 | 20 | 0 | 0.0 | 3.2 | 0.00 | 0.00 | 0.00 | 57 | 1019.5 |
| 20260903184557 | 20 | 0 | 0.0 | 0.0 | 0.00 | 0.00 | 0.00 | 55 | 1019.4 |
| 20260903183054 | 20 | 0 | 0.0 | 3.2 | 0.00 | 0.00 | 0.00 | 54 | 1019.3 |
| 20260903181554 | 21 | 0 | 0.0 | 1.6 | 0.00 | 0.00 | 0.00 | 53 | 1019.2 |
| 20260903180053 | 21 | 0 | 0.0 | 9.7 | 0.00 | 0.00 | 0.00 | 52 | 1019.1 |
| 20260903174600 | 21 | 0 | 0.0 | 4.8 | 0.00 | 0.00 | 0.00 | 52 | 1018.9 |
| 20260903173049 | 21 | 0 | 0.0 | 0.0 | 0.00 | 0.00 | 0.00 | 51 | 1018.9 |
| 20260903171609 | 22 | 0 | 0.0 | 3.2 | 0.00 | 0.00 | 0.00 | 50 | 1018.9 |
| 20260903170056 | 22 | 0 | 0.0 | 8.0 | 0.00 | 0.00 | 0.00 | 49 | 1018.9 |
| 20260903164548 | 22 | 0 | 0.0 | 12.9 | 0.00 | 0.00 | 0.00 | 47 | 1019.0 |
| 20260903163053 | 22 | 0 | 0.0 | 16.1 | 0.00 | 0.00 | 0.00 | 47 | 1018.9 |
| 20260903161555 | 23 | 273 | 4.8 | 20.9 | 0.00 | 0.00 | 0.00 | 47 | 1019.0 |
| 20260903160051 | 23 | 237 | 3.2 | 20.9 | 0.00 | 0.00 | 0.00 | 47 | 1019.1 |
| 20260903154551 | 24 | 273 | 9.7 | 20.9 | 0.00 | 0.00 | 0.00 | 46 | 1019.0 |
| 20260903153106 | 24 | 360 | 14.5 | 0.0 | 0.00 | 0.00 | 0.00 | 45 | 1018.9 |
| 20260903151607 | 23 | 360 | 4.8 | 17.7 | 0.00 | 0.00 | 0.00 | 47 | 1018.9 |
| 20260903150100 | 23 | 283 | 9.7 | 22.5 | 0.00 | 0.00 | 0.00 | 45 | 1019.0 |
| 20260903144551 | 24 | 258 | 8.0 | 17.7 | 0.00 | 0.00 | 0.00 | 46 | 1019.1 |
| 20260903143059 | 23 | 360 | 8.0 | 22.5 | 0.00 | 0.00 | 0.00 | 46 | 1019.2 |
| 20260903141554 | 23 | 360 | 6.4 | 24.1 | 0.00 | 0.00 | 0.00 | 45 | 1019.2 |
| 20260903140105 | 23 | 264 | 3.2 | 24.1 | 0.00 | 0.00 | 0.00 | 44 | 1019.4 |
| 20260903134553 | 23 | 230 | 6.4 | 19.3 | 0.00 | 0.00 | 0.00 | 46 | 1019.5 |
| 20260903133048 | 23 | 279 | 4.8 | 24.1 | 0.00 | 0.00 | 0.00 | 48 | 1019.5 |
| 20260903131605 | 23 | 272 | 17.7 | 22.5 | 0.00 | 0.00 | 0.00 | 48 | 1019.6 |
| 20260903130052 | 23 | 241 | 0.0 | 20.9 | 0.00 | 0.00 | 0.00 | 49 | 1019.5 |
| 20260903124607 | 23 | 360 | 9.7 | 20.9 | 0.00 | 0.00 | 0.00 | 49 | 1019.5 |
| 20260903123054 | 23 | 0 | 14.5 | 29.0 | 0.00 | 0.00 | 0.00 | 48 | 1019.5 |
| 20260903121550 | 23 | 268 | 14.5 | 27.4 | 0.00 | 0.00 | 0.00 | 47 | 1019.6 |
| 20260903114552 | 24 | 276 | 6.4 | 25.7 | 0.00 | 0.00 | 0.00 | 48 | 1019.7 |
| 20260903113057 | 24 | 271 | 16.1 | 25.7 | 0.00 | 0.00 | 0.00 | 48 | 1019.9 |
| 20260903111552 | 23 | 286 | 12.9 | 30.6 | 0.00 | 0.00 | 0.00 | 47 | 1020.0 |
| 20260903110049 | 24 | 281 | 14.5 | 27.4 | 0.00 | 0.00 | 0.00 | 50 | 1019.9 |
| 20260903104554 | 23 | 269 | 16.1 | 29.0 | 0.00 | 0.00 | 0.00 | 51 | 1020.1 |
| 20260903103053 | 23 | 148 | 11.3 | 24.1 | 0.00 | 0.00 | 0.00 | 53 | 1020.0 |
| 20260903101557 | 23 | 360 | 12.9 | 22.5 | 0.00 | 0.00 | 0.00 | 53 | 1020.1 |
| 20260903100055 | 22 | 360 | 6.4 | 25.7 | 0.00 | 0.00 | 0.00 | 53 | 1020.2 |
| 20260903094637 | 22 | 360 | 6.4 | 0.0 | 0.00 | 0.00 | 0.00 | 55 | 1020.2 |
| 20260903093054 | 22 | 276 | 8.0 | 20.9 | 0.00 | 0.00 | 0.00 | 54 | 1020.4 |
| 20260903091554 | 21 | 320 | 9.7 | 22.5 | 0.00 | 0.00 | 0.00 | 56 | 1020.3 |
| 20260903090057 | 21 | 360 | 14.5 | 24.1 | 0.00 | 0.00 | 0.00 | 56 | 1020.6 |
| 20260903084551 | 20 | 360 | 4.8 | 22.5 | 0.00 | 0.00 | 0.00 | 57 | 1020.5 |
| 20260903083048 | 20 | 279 | 8.0 | 19.3 | 0.00 | 0.00 | 0.00 | 58 | 1020.4 |
| 20260903081548 | 20 | 360 | 6.4 | 16.1 | 0.00 | 0.00 | 0.00 | 59 | 1020.3 |
| 20260903080100 | 20 | 0 | 0.0 | 0.0 | 0.00 | 0.00 | 0.00 | 60 | 1020.2 |
| 20260903074552 | 18 | 0 | 0.0 | 11.3 | 0.00 | 0.00 | 0.00 | 68 | 1020.0 |
| 20260903073050 | 17 | 172 | 0.0 | 12.9 | 0.00 | 0.00 | 0.00 | 71 | 1020.1 |
| 20260903071554 | 16 | 0 | 0.0 | 9.7 | 0.00 | 0.00 | 0.00 | 76 | 1020.3 |
| 20260903070053 | 15 | 0 | 0.0 | 8.0 | 0.00 | 0.00 | 0.00 | 80 | 1020.5 |
| 20260903064554 | 14 | 0 | 0.0 | 4.8 | 0.00 | 0.00 | 0.00 | 83 | 1020.5 |
| 20260903063059 | 13 | 0 | 0.0 | 4.8 | 0.00 | 0.00 | 0.00 | 83 | 1020.4 |
| 20260903061554 | 12 | 0 | 0.0 | 0.0 | 0.00 | 0.00 | 0.00 | 82 | 1020.3 |
| 20260903060056 | 12 | 0 | 0.0 | 0.0 | 0.00 | 0.00 | 0.00 | 82 | 1020.2 |
| 20260903054549 | 12 | 0 | 0.0 | 0.0 | 0.00 | 0.00 | 0.00 | 81 | 1020.2 |
| 20260903053102 | 12 | 0 | 0.0 | 0.0 | 0.00 | 0.00 | 0.00 | 81 | 1020.0 |
| 20260903051554 | 11 | 0 | 0.0 | 0.0 | 0.00 | 0.00 | 0.00 | 80 | 1020.0 |
| 20260903050049 | 11 | 0 | 0.0 | 0.0 | 0.00 | 0.00 | 0.00 | 79 | 1020.0 |
| 20260903044546 | 11 | 0 | 0.0 | 0.0 | 0.00 | 0.00 | 0.00 | 79 | 1020.0 |
| 20260903043053 | 11 | 0 | 0.0 | 0.0 | 0.00 | 0.00 | 0.00 | 78 | 1019.9 |
| 20260903041607 | 12 | 0 | 0.0 | 0.0 | 0.00 | 0.00 | 0.00 | 77 | 1019.9 |
| 20260903034553 | 12 | 0 | 0.0 | 0.0 | 0.00 | 0.00 | 0.00 | 76 | 1019.8 |
| 20260903033052 | 12 | 0 | 0.0 | 0.0 | 0.00 | 0.00 | 0.00 | 76 | 1019.8 |
| 20260903031551 | 12 | 0 | 0.0 | 0.0 | 0.00 | 0.00 | 0.00 | 76 | 1019.9 |
| 20260903030049 | 13 | 0 | 0.0 | 0.0 | 0.00 | 0.00 | 0.00 | 75 | 1019.9 |
| 20260903024555 | 13 | 0 | 0.0 | 0.0 | 0.00 | 0.00 | 0.00 | 75 | 1019.9 |
| 20260903023055 | 13 | 0 | 0.0 | 0.0 | 0.00 | 0.00 | 0.00 | 75 | 1019.9 |
| 20260903021552 | 13 | 0 | 0.0 | 0.0 | 0.00 | 0.00 | 0.00 | 75 | 1019.9 |
| 20260903020047 | 13 | 0 | 0.0 | 0.0 | 0.00 | 0.00 | 0.00 | 75 | 1019.8 |
| 20260903014556 | 13 | 0 | 0.0 | 0.0 | 0.00 | 0.00 | 0.00 | 75 | 1019.8 |
| 20260903013052 | 13 | 0 | 0.0 | 0.0 | 0.00 | 0.00 | 0.00 | 75 | 1019.9 |
| 20260903011600 | 13 | 0 | 0.0 | 0.0 | 0.00 | 0.00 | 0.00 | 75 | 1019.8 |
| 20260903010056 | 13 | 0 | 0.0 | 0.0 | 0.00 | 0.00 | 0.00 | 75 | 1019.7 |
| 20260903004557 | 13 | 0 | 0.0 | 0.0 | 0.00 | 0.00 | 0.00 | 74 | 1019.8 |
| 20260903003052 | 13 | 0 | 0.0 | 0.0 | 0.00 | 0.00 | 0.00 | 73 | 1019.8 |
| 20260903001601 | 14 | 0 | 0.0 | 0.0 | 0.00 | 0.00 | 0.00 | 73 | 1019.7 |
| 20260903000100 | 14 | 0 | 0.0 | 0.0 | 0.00 | 0.00 | 0.00 | 73 | 1019.7 |
| 20260902234554 | 14 | 0 | 0.0 | 0.0 | 0.00 | 0.00 | 0.00 | 73 | 1019.6 |
| 20260902233053 | 14 | 0 | 0.0 | 0.0 | 0.00 | 0.00 | 0.00 | 72 | 1019.6 |
| 20260902231551 | 14 | 0 | 0.0 | 0.0 | 0.00 | 0.00 | 0.00 | 71 | 1019.8 |
| 20260902230049 | 15 | 0 | 0.0 | 0.0 | 0.00 | 0.00 | 0.00 | 71 | 1019.7 |